[[{"header":{"parameterUnit":"m.s-1","parameterCategory":1,"la1":30.2991,"la2":30.254,"lo1":-89.0895,"lo2":-89.0444,"dy":0.0017,"dx":0.0017,"nx":28,"ny":28,"refTime":"2024-05-19T03:00:00:Z","depth":0,"parameterNumber":2,"parameterNumberName":"U-component_of_WINDS"},"data":[0,0,0,0,0,0,0,0,0,0,0,0,0,0,0,0,0,0,0,0,0,0,0,0,0,0,0,0,0,0,0,0,0,0,0,0,0,0,0,0,0,0,0,0,0,0,0,0,0,0,0,0,0,0,0,0,0,0,2.6675,2.6677,0,2.6795,2.6797,2.6798,2.6755,2.6752,2.675,2.6747,2.6884,2.689,2.6896,0,0,0,0,0,0,0,0,0,0,0,0,0,2.6424,2.6429,2.6675,2.6677,2.6678,2.6795,2.6797,2.6799,2.6756,2.6752,2.6749,2.6746,2.6882,2.6889,2.6897,0,0,0,0,0,0,0,0,0,0,0,0,0,2.6538,2.643,2.6675,2.6671,2.6671,2.6795,2.6797,2.6799,2.6756,2.6752,2.6748,2.6744,2.688,2.6889,2.6898,2.7037,0,0,2.6926,2.693,0,0,0,0,0,0,0,0,2.6531,2.6547,2.667,2.6671,2.6672,2.6756,2.6758,2.6879,2.6757,2.6725,2.6747,2.6742,2.6846,2.6857,2.6889,2.7043,2.7049,2.6927,2.6933,2.6937,2.6939,0,0,0,0,0,0,0,2.6523,2.6542,2.6723,2.6672,2.6673,2.6668,2.6679,2.6781,2.6807,2.6727,2.6724,2.6738,2.6846,2.688,2.6892,2.7051,2.6927,2.6935,2.6941,2.6944,2.733,2.7335,0,0,0,0,0,0,2.6513,2.6535,2.6719,2.6727,2.659,2.6675,2.6688,2.6733,2.6806,2.6812,2.6742,2.6736,2.6867,2.6881,2.6897,2.7067,2.6936,2.6945,2.695,2.7326,2.7331,2.7336,0,0,0,0,0,0,2.6508,2.653,2.6715,2.663,2.6653,2.6684,2.6735,2.6738,2.6772,2.6816,2.6822,2.6772,2.6864,2.6884,2.7002,2.7071,2.6949,2.6958,2.732,2.7327,2.7334,2.7408,0,0,0,0,0,0,2.6501,2.6528,2.6578,2.6631,2.6658,2.6814,2.6739,2.6743,2.6787,2.6781,2.6846,2.6853,2.6862,2.6989,2.7012,2.7082,2.6965,2.7314,2.7323,2.7331,2.7399,2.7416,2.7431,0,0,0,0,0,2.6492,2.6596,2.658,2.6603,2.672,2.6818,2.6833,2.6838,2.6793,2.6846,2.6874,2.6851,2.7059,2.7001,2.7027,2.7101,2.731,2.7321,2.7331,2.7392,2.7413,2.7431,0,0,0,0,0,0,2.6554,2.6603,2.6586,2.671,2.6759,2.681,2.6876,2.6859,2.6926,2.6918,2.6925,2.694,2.7063,2.7093,2.7027,2.7242,2.7179,2.7195,2.7217,2.7237,2.7252,2.7244,2.6973,0,0,0,0,0,2.6581,2.6652,2.6693,2.6798,2.6823,2.6846,2.6889,2.6887,2.6941,2.6963,2.7,2.7057,2.7136,2.7188,2.7262,2.7403,2.7419,2.7467,2.7483,2.7496,2.7511,2.7591,2.7614,2.7371,2.7371,2.7371,0,0,2.664,2.6675,2.672,2.6812,2.685,2.6928,2.6864,2.6949,2.7008,2.6978,2.7091,2.7121,2.7185,2.7316,2.7376,2.7346,2.7581,2.7509,2.7519,2.7527,2.7604,2.7627,2.7648,2.7378,2.7377,2.7376,0,0,2.6787,2.6819,2.6911,2.695,2.7008,2.7022,2.7045,2.7098,2.7116,2.7228,2.7208,2.7282,2.7416,2.7463,2.7505,2.7672,2.7655,2.7696,2.7781,2.7859,2.7878,2.7895,2.7958,2.798,2.7711,2.7711,2.7711,0,2.6854,2.6965,2.6963,2.7049,2.7092,2.7063,2.7161,2.72,2.7281,2.7314,2.7278,2.7447,2.7488,2.7631,2.7672,2.7706,2.7736,2.769,2.7875,2.7892,2.7908,2.7968,2.7992,2.7716,2.7715,2.7715,2.7714,0,2.7047,2.7126,2.7194,2.7269,2.7319,2.7411,2.7427,2.7479,2.7474,2.7494,2.7613,2.7661,2.7746,2.7779,2.7777,2.7924,2.7904,2.7871,2.7809,2.7936,2.7993,2.8016,2.7723,2.7721,2.7719,2.7718,0,0,2.7237,2.7308,2.7334,2.7369,2.7431,2.7494,2.7587,2.7665,2.7712,2.777,2.7851,2.7965,2.7936,2.7983,2.7986,2.8055,2.8188,2.8014,2.8016,2.8048,2.8358,2.8384,2.841,2.8176,2.8181,2.8184,2.8354,0,2.7392,2.7548,2.7549,2.7696,2.7771,2.7746,2.7828,2.7877,2.7899,2.797,2.7995,2.8077,2.803,2.806,2.8126,2.8158,2.8251,2.8145,2.8257,2.8261,2.8244,2.844,2.8467,2.8625,2.8376,2.838,2.8382,0,2.7592,2.7652,2.7805,2.7858,2.789,2.7962,2.8036,2.8102,2.8161,2.8172,2.8225,2.8218,2.8318,2.825,2.8391,2.8319,2.8365,2.8388,2.8394,2.8407,2.8331,2.8461,2.8675,2.8699,2.8417,2.8414,2.8411,0,2.772,2.7839,2.7947,2.7977,2.804,2.8093,2.8123,2.8176,2.8224,2.829,2.8323,2.8402,2.8446,2.8509,2.8526,2.8474,2.8668,2.8601,2.8685,2.8685,2.8729,2.8726,2.8956,2.8754,2.8753,2.8753,2.8752,0,2.7893,2.7989,2.8005,2.8072,2.818,2.8182,2.8291,2.8317,2.8365,2.8441,2.8425,2.8497,2.8513,2.859,2.8604,2.8721,2.874,2.8756,2.8759,2.8759,2.8757,2.8791,2.8782,2.8759,2.8758,2.8756,2.8755,0,2.8055,2.8068,2.8185,2.8234,2.825,2.8328,2.8373,2.844,2.8459,2.8555,2.8578,2.861,2.87,2.8722,2.883,2.884,2.8979,2.897,2.8958,2.8958,2.9042,2.9035,2.9304,2.9341,2.9112,2.9114,2.9116,0,2.8166,2.8238,2.8295,2.8342,2.8374,2.845,2.8498,2.8505,2.8557,2.8629,2.8689,2.8775,2.8845,2.8991,2.9028,2.9112,2.9107,2.9196,2.912,2.9118,2.9113,2.9109,2.9118,2.9211,2.9213,2.9215,2.9217,0,2.8363,2.8366,2.8434,2.8505,2.8562,2.862,2.8675,2.8716,2.8731,2.8791,2.888,2.8935,2.9044,2.9133,2.9217,2.9253,2.9241,2.924,2.9264,2.9266,2.9257,2.9266,2.9,2.9234,2.9233,2.9231,2.923,2.923,2.8505,2.8569,2.8619,2.8697,2.8738,2.879,2.8855,2.8882,2.8955,2.9041,2.9042,2.9141,2.9201,2.9311,2.9353,2.9434,2.9407,2.9442,2.9451,2.9461,2.9469,2.9242,2.9449,2.9449,2.9448,2.9448,2.9447,0,2.8704,2.8735,2.8805,2.8881,2.8943,2.8919,2.898,2.9035,2.912,2.9175,2.9243,2.9348,2.9434,2.9477,2.9564,2.9621,2.9617,2.9644,2.9641,2.9651,2.9486,2.9458,2.9645,2.9645,2.9645,2.9645,2.9645,2.9645,2.8815,2.8923,2.8933,2.9064,2.9095,2.9188,2.9225,2.9275,2.9318,2.9434,2.9504,2.953,2.9582,2.9672,2.9752,2.9762,2.9797,2.9828,2.9836,2.9682,2.9662,2.9643,2.9616,2.9834,2.9834,2.9994,2.9995,2.9996]},{"header":{"parameterUnit":"m.s-1","parameterCategory":1,"la1":30.2991,"la2":30.254,"lo1":-89.0895,"lo2":-89.0444,"dy":0.0017,"dx":0.0017,"nx":28,"ny":28,"refTime":"2024-05-19T03:00:00:Z","depth":0,"parameterNumber":3,"parameterNumberName":"V-component_of_WINDS"},"data":[0,0,0,0,0,0,0,0,0,0,0,0,0,0,0,0,0,0,0,0,0,0,0,0,0,0,0,0,0,0,0,0,0,0,0,0,0,0,0,0,0,0,0,0,0,0,0,0,0,0,0,0,0,0,0,0,0,0,2.4447,2.4448,0,2.459,2.4591,2.4593,2.4582,2.458,2.4577,2.4575,2.4722,2.4728,2.4734,0,0,0,0,0,0,0,0,0,0,0,0,0,2.4161,2.4166,2.4447,2.4448,2.445,2.459,2.4592,2.4594,2.4582,2.4579,2.4577,2.4574,2.472,2.4727,2.4734,0,0,0,0,0,0,0,0,0,0,0,0,0,2.4293,2.4168,2.4446,2.4461,2.4464,2.4589,2.4592,2.4594,2.4583,2.4579,2.4576,2.4573,2.4718,2.4727,2.4735,2.4855,0,0,2.4763,2.4766,0,0,0,0,0,0,0,0,2.4285,2.4303,2.4457,2.446,2.4464,2.4565,2.4545,2.4682,2.4583,2.4538,2.4575,2.4572,2.4672,2.4685,2.4719,2.4862,2.4868,2.4763,2.4769,2.4773,2.4775,0,0,0,0,0,0,0,2.4276,2.4297,2.4503,2.446,2.4464,2.446,2.4475,2.4571,2.4621,2.4541,2.4541,2.4558,2.4674,2.471,2.4722,2.487,2.4763,2.4771,2.4776,2.478,2.5116,2.512,0,0,0,0,0,0,2.4264,2.4289,2.4499,2.4508,2.4365,2.4468,2.4485,2.4536,2.462,2.463,2.4561,2.4557,2.4697,2.4712,2.4727,2.4872,2.4772,2.4781,2.4786,2.5113,2.5117,2.5121,0,0,0,0,0,0,2.4258,2.4283,2.4493,2.4398,2.4425,2.4476,2.4533,2.454,2.4577,2.4635,2.4644,2.4589,2.4695,2.4715,2.4823,2.4877,2.4785,2.4793,2.5108,2.5114,2.5119,2.5163,0,0,0,0,0,0,2.425,2.428,2.4327,2.44,2.443,2.4587,2.4537,2.4545,2.4592,2.4589,2.4664,2.4673,2.4694,2.481,2.4832,2.4887,2.48,2.5104,2.5111,2.5117,2.5157,2.5169,2.5179,0,0,0,0,0,2.4239,2.4334,2.433,2.4355,2.449,2.459,2.4607,2.4629,2.4597,2.4643,2.468,2.4671,2.4867,2.4821,2.4845,2.4905,2.51,2.5109,2.5117,2.5152,2.5167,2.5179,0,0,0,0,0,0,2.4268,2.4344,2.434,2.4461,2.4519,2.4588,2.4648,2.4645,2.4713,2.4707,2.4731,2.4748,2.4856,2.4891,2.4838,2.5024,2.4979,2.4993,2.4997,2.5012,2.5023,2.5013,2.4807,0,0,0,0,0,2.4288,2.4364,2.4426,2.4527,2.4556,2.4597,2.4642,2.4653,2.4714,2.4739,2.4783,2.4843,2.4917,2.4966,2.5039,2.5161,2.5177,2.5214,2.5225,2.5234,2.5246,2.5311,2.5328,2.5147,2.5147,2.5147,0,0,2.4331,2.4382,2.4429,2.4534,2.458,2.4657,2.4618,2.4702,2.4759,2.4751,2.4856,2.489,2.4958,2.5073,2.5126,2.5106,2.5299,2.5244,2.5251,2.5258,2.5322,2.5339,2.5354,2.5153,2.5152,2.5151,0,0,2.4449,2.4495,2.4584,2.463,2.47,2.4726,2.4747,2.4816,2.4839,2.4944,2.4939,2.5007,2.5136,2.5184,2.5225,2.5357,2.5351,2.538,2.544,2.5503,2.5518,2.553,2.5577,2.5594,2.5391,2.5391,2.5391,0,2.4494,2.461,2.463,2.4714,2.476,2.4755,2.4844,2.4888,2.4978,2.501,2.4985,2.5145,2.519,2.5316,2.5348,2.5381,2.5405,2.5372,2.5514,2.5527,2.5539,2.5584,2.5602,2.5394,2.5394,2.5393,2.5393,0,2.4661,2.4742,2.4804,2.4891,2.4943,2.503,2.5061,2.5112,2.5118,2.5146,2.5252,2.5305,2.5387,2.5417,2.5425,2.5544,2.5529,2.5509,2.5465,2.5559,2.5602,2.5619,2.5398,2.5397,2.5396,2.5396,0,0,2.4804,2.4898,2.492,2.4959,2.5034,2.5096,2.5181,2.5261,2.5303,2.5364,2.5436,2.5543,2.5524,2.5571,2.5583,2.5639,2.5739,2.5612,2.5614,2.5634,2.5873,2.5888,2.5907,2.5734,2.5737,2.574,2.5867,0,2.4929,2.508,2.5099,2.5232,2.5306,2.5301,2.5374,2.5428,2.5456,2.5522,2.5552,2.5628,2.5597,2.5625,2.568,2.5715,2.5787,2.5706,2.5801,2.5804,2.5785,2.593,2.5947,2.6064,2.5884,2.5886,2.5889,0,2.5096,2.5161,2.5302,2.5365,2.5397,2.5463,2.5536,2.5599,2.5659,2.5675,2.5726,2.573,2.5816,2.5767,2.5886,2.583,2.587,2.5892,2.5897,2.5908,2.5853,2.5945,2.6102,2.6119,2.5915,2.5913,2.5911,0,2.5186,2.5308,2.5408,2.5441,2.5517,2.5563,2.5597,2.5654,2.57,2.5763,2.5793,2.5866,2.5906,2.5962,2.5985,2.5948,2.6103,2.6056,2.6118,2.6118,2.6153,2.6151,2.6319,2.6177,2.6176,2.6176,2.6176,0,2.5324,2.5411,2.5449,2.5511,2.5606,2.5626,2.572,2.5752,2.5801,2.5868,2.5868,2.593,2.5957,2.6023,2.6042,2.6137,2.6155,2.617,2.6174,2.6171,2.6169,2.6198,2.6191,2.6181,2.618,2.6179,2.6178,0,2.5441,2.5471,2.5579,2.5641,2.5659,2.5727,2.578,2.5838,2.5864,2.5948,2.5969,2.601,2.6088,2.6116,2.6211,2.6223,2.6334,2.633,2.6314,2.6315,2.6376,2.637,2.6569,2.6596,2.6436,2.6437,2.6438,0,2.5528,2.5594,2.5663,2.5708,2.5743,2.5815,2.5861,2.5882,2.593,2.6002,2.6052,2.6129,2.6192,2.6317,2.6354,2.6427,2.6426,2.649,2.6437,2.6431,2.6427,2.6423,2.6429,2.6501,2.6503,2.6504,2.6505,0,2.5679,2.569,2.5757,2.5829,2.5884,2.5941,2.5997,2.6033,2.6062,2.6116,2.6195,2.6244,2.634,2.6416,2.649,2.6524,2.652,2.6521,2.654,2.6538,2.6525,2.6533,2.6342,2.6517,2.6516,2.6515,2.6514,2.6514,2.5784,2.5842,2.5899,2.5973,2.6017,2.6068,2.6126,2.6158,2.6225,2.6304,2.6312,2.6397,2.6453,2.6551,2.6588,2.6655,2.6637,2.6664,2.6671,2.6677,2.6682,2.6513,2.6668,2.6668,2.6668,2.6667,2.6667,0,2.5935,2.5971,2.6039,2.6116,2.6174,2.6163,2.6224,2.6273,2.6348,2.64,2.6461,2.6552,2.6625,2.6668,2.6741,2.6786,2.6786,2.6805,2.6802,2.681,2.6693,2.667,2.6804,2.6804,2.6803,2.6803,2.6803,2.6803,2.602,2.6118,2.6134,2.6252,2.6287,2.6371,2.6406,2.6453,2.6495,2.6595,2.6656,2.6683,2.6731,2.6808,2.6874,2.6885,2.6912,2.6933,2.6942,2.6832,2.6818,2.6805,2.6783,2.6938,2.6938,2.7053,2.7054,2.7055]}]]